Weather History for Imperial, NE

Change the Weather History Date:

Monday, December 12, 2011

  Actual Average Record
Temperature  
Mean Temperature 28 °F 28 °F  
Max Temperature 41 °F 41 °F 65 °F (1921)
Min Temperature 15 °F 16 °F -24 °F (1932)
Degree Days  
Heating Degree Days 37 37  
Month to date heating degree days 495 424  
Cooling Degree Days 0 0  
Month to date cooling degree days 0 0  
Year to date cooling degree days 1096 963  
Moisture  
Dew Point 23 °F    
Average Humidity 80    
Maximum Humidity 100    
Minimum Humidity 59    
Precipitation  
Precipitation 0.00 in 0.00 in 0.62 in (1991)
Sea Level Pressure  
Sea Level Pressure 30.17 in    
Wind  
Wind Speed 8 mph (ENE)    
Max Wind Speed 14 mph    
Max Gust Speed 17 mph    
Visibility 7 miles    
Events Fog    
T = Trace of Precipitation, MM = Missing Value Source: NWS Daily Summary

Daily Weather History Graph

Daily Weather History Graph

Search for Another Location

Airport:

Trip Planner

Search our weather history database for the weather conditions in past years. The results will help you decide how hot, cold, wet, or windy it might be!

Date:

Astronomy

Dec. 12, 2011 Rise Set
Actual Time 7:00 AM MST 4:19 PM MST
Civil Twilight 6:29 AM MST 4:50 PM MST
Nautical Twilight 5:55 AM MST 5:24 PM MST
Astronomical Twilight 5:22 AM MST 5:58 PM MST
Moon 6:33 PM MST (12/12) 8:33 AM MST (12/12)
Length of Visible Light 10h 20m
Length of Day
9h 19m
Waning Gibbous, 95% of the Moon is Illuminated
Dec 12
Waning Gibbous
Dec 17
Last Quarter
Dec 24
New
Dec 31
First Quarter
Jan 9
Full

Hourly Weather History & Observations

Time (MST) Temp. Windchill Dew Point Humidity Pressure Visibility Wind Dir Wind Speed Gust Speed Precip Events Conditions
12:53 AM 18.0 °F 9.8 °F 15.1 °F 88% 30.01 in 6.0 mi WSW 5.8 mph - N/A   Clear
1:53 AM 19.0 °F 13.9 °F 15.1 °F 85% 30.04 in 10.0 mi West 3.5 mph - N/A   Clear
2:53 AM 19.0 °F 12.3 °F 15.1 °F 85% 30.06 in 10.0 mi West 4.6 mph - N/A   Clear
3:53 AM 21.0 °F 11.4 °F 17.1 °F 85% 30.08 in 10.0 mi NNW 8.1 mph - N/A   Clear
4:53 AM 21.9 °F 10.4 °F 18.0 °F 85% 30.10 in 10.0 mi NNW 11.5 mph - N/A   Clear
5:53 AM 21.9 °F 11.0 °F 18.0 °F 85% 30.14 in 10.0 mi NNW 10.4 mph - N/A   Clear
6:53 AM 21.2 °F 10.1 °F 17.6 °F 86% 30.05 in 10.0 mi NNW 10.4 mph - N/A   Clear
7:53 AM 21.9 °F 15.7 °F 18.0 °F 85% 30.21 in 10.0 mi WNW 4.6 mph - N/A   Clear
8:53 AM 26.1 °F 19.4 °F 21.0 °F 81% 30.21 in 10.0 mi NNW 5.8 mph - N/A   Clear
9:53 AM 30.9 °F 24.3 °F 25.0 °F 79% 30.22 in 10.0 mi North 6.9 mph - N/A   Clear
10:53 AM 36.0 °F 29.6 °F 27.0 °F 70% 30.21 in 10.0 mi North 8.1 mph - N/A   Clear
11:53 AM 37.0 °F 31.6 °F 26.1 °F 65% 30.19 in 10.0 mi North 6.9 mph - N/A   Clear
12:53 PM 39.9 °F 35.1 °F 26.1 °F 58% 30.17 in 10.0 mi NNE 6.9 mph - N/A   Clear
1:53 PM 39.9 °F 35.1 °F 26.1 °F 58% 30.15 in 10.0 mi NE 6.9 mph - N/A   Clear
2:53 PM 39.9 °F 35.1 °F 26.1 °F 58% 30.16 in 10.0 mi NE 6.9 mph - N/A   Clear
3:53 PM 35.1 °F 29.3 °F 26.1 °F 70% 30.20 in 10.0 mi East 6.9 mph - N/A   Clear
4:53 PM 28.9 °F 21.9 °F 24.1 °F 82% 30.23 in 10.0 mi ENE 6.9 mph - N/A   Clear
5:53 PM 28.0 °F 21.7 °F 24.1 °F 85% 30.25 in 10.0 mi ESE 5.8 mph - N/A   Clear
6:53 PM 27.0 °F 18.0 °F 25.0 °F 92% 30.25 in 8.0 mi SE 9.2 mph - N/A   Clear
7:24 PM 26.6 °F 20.0 °F 24.8 °F 93% 30.14 in 5.0 mi ESE 5.8 mph - N/A   Scattered Clouds
7:29 PM 26.6 °F 18.2 °F 24.8 °F 93% 30.15 in 5.0 mi SE 8.1 mph - N/A   Mostly Cloudy
7:53 PM 27.0 °F 16.1 °F 26.1 °F 96% 30.27 in 4.0 mi SE 12.7 mph - N/A   Overcast
8:53 PM 27.0 °F 17.3 °F 26.1 °F 96% 30.25 in 3.0 mi ESE 10.4 mph - N/A   Overcast
9:12 PM 26.6 °F 17.5 °F 24.8 °F 93% 30.15 in 1.8 mi East 9.2 mph - N/A   Overcast
9:46 PM 26.6 °F 19.1 °F 24.8 °F 93% 30.15 in 0.8 mi ESE 6.9 mph - N/A   Mist
9:53 PM 26.1 °F 17.6 °F 26.1 °F 100% 30.24 in 0.8 mi ESE 8.1 mph - N/A   Mist
10:14 PM 26.6 °F 18.2 °F 26.6 °F 100% 30.14 in 0.2 mi East 8.1 mph - N/A Fog Light Freezing Fog
10:53 PM 26.1 °F 17.6 °F 25.0 °F 96% 30.22 in 0.2 mi East 8.1 mph - N/A Fog Light Freezing Fog
11:53 PM 25.0 °F 15.5 °F 24.1 °F 96% 30.22 in 0.2 mi East 9.2 mph - N/A Fog Light Freezing Fog